Flag for Malaysia Weather past 2 weeks in Kuching, Malaysia

Now
79 °F

Partly cloudy.


Feels Like: 82 °F
Forecast: 74 / 89 °F
Wind: 5 mph from South

Location: Kuching Airport

Current Time: Sep 30, 2014 at 8:17:59 PM

Latest Report: Sep 30, 2014 at 7:30 PM


Visibility: 5 mi

Pressure: 29.83 "Hg

Humidity: 89%

Dew point: 75 °F

Location of KuchingLocation

Historic Weather in Kuching — Graph

°F

Kuching temperature yesterday

Maximum temperature yesterday: 93 °F (at 1:00 PM)
Minimum temperature yesterday: 75 °F (at 4:30 AM)
Average temperature yesterday: 80 °F

Past Weeks' High & Low Weather Summary

 TemperatureHumidityPressure
High93 °F (Sep 16, 2:30 PM)100% (Sep 25, 12:30 AM)29.95 "Hg (Sep 25, 12:30 AM)
Low73 °F (Sep 16, 5:30 AM)52% (Sep 28, 12:00 PM)29.65 "Hg (Sep 16, 3:30 PM)
Average81 °F81%29.83 "Hg
* Reported Sep 15 7:00 PM — Sep 30 7:00 PM, Kuching, Weather by CustomWeather, © 2014

Note: Actual official high and low records may vary slightly from our data, if they occured in-between our weather recording intervals... More about our weather records

Advertising

Kuching weather history for previous 24 hours

 ConditionsComfort  
Time TempWeatherWind HumidityBarometerVisibility
7:00 PM
Sep 30
79 °FPartly cloudy.6 mph84%29.80 "Hg5 mi
6:30 PM79 °FBroken clouds.5 mph84%29.80 "HgN/A
6:00 PM81 °FBroken clouds.6 mph79%29.80 "Hg5 mi
5:30 PM81 °FBroken clouds.7 mph79%29.80 "Hg4 mi
5:00 PM82 °FBroken clouds.5 mph79%29.77 "Hg4 mi
4:30 PM82 °FBroken clouds.5 mph79%29.77 "Hg4 mi
4:00 PM82 °FBroken clouds.3 mph79%29.77 "Hg4 mi
3:30 PM81 °FBroken clouds.3 mph84%29.77 "Hg4 mi
3:00 PM81 °FBroken clouds.5 mph84%29.77 "Hg4 mi
2:30 PM79 °FLight rain. Broken clouds.No wind84%29.80 "Hg4 mi
2:00 PM77 °FLight rain. Broken clouds.5 mph94%29.83 "Hg4 mi
1:30 PM77 °FLight rain. Broken clouds.5 mph89%29.83 "Hg4 mi
1:00 PM75 °FLight rain. Broken clouds.5 mph94%29.86 "Hg4 mi
12:30 PM75 °FLight rain. Broken clouds.6 mph94%29.89 "Hg2 mi
10:00 AM75 °FThunderstorms. Partly sunny.3 mph94%29.95 "Hg1 mi
9:30 AM77 °FBroken clouds.6 mph89%29.92 "Hg2 mi
9:00 AM77 °FBroken clouds.2 mph94%29.89 "Hg2 mi
8:30 AM77 °FBroken clouds.2 mph89%29.89 "Hg3 mi
8:00 AM75 °FBroken clouds.2 mph94%29.89 "Hg3 mi
7:30 AM75 °FBroken clouds.1 mph94%29.89 "Hg3 mi
7:00 AM75 °FBroken clouds.3 mph94%29.86 "Hg3 mi
6:30 AM75 °FPartly sunny.2 mph94%29.83 "Hg4 mi
6:00 AM75 °FPartly cloudy.2 mph94%29.83 "Hg4 mi
5:30 AM75 °FPartly cloudy.3 mph94%29.86 "Hg4 mi
5:00 AM75 °FPartly cloudy.7 mph94%29.83 "Hg4 mi
4:30 AM75 °FPartly cloudy.1 mph94%29.83 "Hg4 mi
4:00 AM75 °FPartly cloudy.1 mph94%29.80 "Hg4 mi
3:30 AM75 °FPartly cloudy.No wind94%29.80 "Hg4 mi
3:00 AM75 °FPartly cloudy.No wind94%29.83 "Hg4 mi
2:30 AM75 °FPartly cloudy.2 mph94%29.83 "Hg4 mi
2:00 AM75 °FLight rain. Partly cloudy.6 mph94%29.83 "Hg5 mi
1:30 AM75 °FLight rain. Partly cloudy.3 mph94%29.83 "Hg5 mi
1:00 AM75 °FPartly cloudy.2 mph94%29.83 "Hg5 mi
12:30 AM75 °FPartly cloudy.No wind94%29.86 "Hg5 mi
12:00 AM75 °FPartly cloudy.5 mph94%29.86 "Hg5 mi
11:30 PM
Sep 29
75 °FPartly cloudy.2 mph94%29.86 "Hg5 mi
11:00 PM77 °FPartly cloudy.3 mph89%29.86 "Hg4 mi
10:30 PM77 °FPartly cloudy.2 mph89%29.86 "Hg4 mi
10:00 PM77 °FPartly cloudy.No wind89%29.86 "Hg4 mi
9:30 PM77 °FPartly cloudy.1 mph94%29.86 "Hg4 mi
9:00 PM77 °FPartly cloudy.2 mph89%29.86 "Hg4 mi
8:30 PM77 °FPartly cloudy.6 mph89%29.83 "Hg5 mi
8:00 PM77 °FPartly cloudy.6 mph89%29.83 "Hg4 mi
Weather by CustomWeather, © 2014

See weather overviewHow to use our weather pages